This is the latest recevied weather packets stored in our database for station/object N3WPH. If no packets are shown the sender has not sent any weather packets the latest 10 day(s).
| Time | Temp. | Humidity | Pressure | Rain* | Wind** | Luminosity | Snow |
|---|---|---|---|---|---|---|---|
| 1777991841 | 23.89° C | 48% | 1008.9 hPa | 0 mm | - | 621 W/m² | - |
| 1777991538 | 23.89° C | 48% | 1009 hPa | 0 mm | - | 597 W/m² | - |
| 1777991235 | 23.33° C | 49% | 1009.1 hPa | 0 mm | - | 578 W/m² | - |
| 1777990932 | 23.33° C | 48% | 1009.2 hPa | 0 mm | - | 570 W/m² | - |
| 1777990630 | 23.33° C | 47% | 1009.1 hPa | 0 mm | - | 557 W/m² | - |
| 1777990327 | 22.78° C | 48% | 1009.2 hPa | 0 mm | - | 547 W/m² | - |
| 1777990023 | 22.78° C | 50% | 1009.5 hPa | 0 mm | - | 536 W/m² | - |
| 1777989720 | 22.78° C | 49% | 1009.3 hPa | 0 mm | - | 525 W/m² | - |
| 1777989416 | 22.78° C | 50% | 1009.5 hPa | 0 mm | - | 514 W/m² | - |
| 1777989113 | 22.22° C | 51% | 1009.3 hPa | 0 mm | - | 503 W/m² | - |
| 1777988808 | 22.22° C | 52% | 1009.6 hPa | 0 mm | - | 499 W/m² | - |
| 1777988506 | 21.67° C | 51% | 1009.7 hPa | 0 mm | - | 483 W/m² | - |
| 1777988203 | 21.67° C | 53% | 1009.8 hPa | 0 mm | - | 476 W/m² | - |
| 1777987899 | 21.67° C | 53% | 1009.9 hPa | 0 mm | - | 443 W/m² | - |
| 1777987595 | 21.67° C | 53% | 1010 hPa | 0 mm | - | 425 W/m² | - |
| 1777987293 | 21.67° C | 53% | 1010 hPa | 0 mm | - | 404 W/m² | - |
| 1777986989 | 21.67° C | 52% | 1009.8 hPa | 0 mm | - | 394 W/m² | - |
| 1777986687 | 21.67° C | 54% | 1009.8 hPa | 0 mm | - | 378 W/m² | - |
| 1777986386 | 21.67° C | 53% | 1010 hPa | 0 mm | - | 341 W/m² | - |
| 1777986084 | 21.11° C | 55% | 1009.6 hPa | 0 mm | - | 365 W/m² | - |
| 1777985780 | 21.11° C | 55% | 1010 hPa | 0 mm | - | 329 W/m² | - |
| 1777985477 | 20° C | 56% | 1009.6 hPa | 0 mm | - | 315 W/m² | - |
| 1777985173 | 20° C | 57% | 1009.7 hPa | 0 mm | - | 192 W/m² | - |
| 1777984870 | 20° C | 56% | 1009.8 hPa | 0 mm | - | 227 W/m² | - |
| 1777984566 | 20.56° C | 57% | 1009.8 hPa | 0 mm | - | 161 W/m² | - |
* Rain latest hour (hover to see other rain measurements)
** Current wind speed in m/s (hover to see current wind gust speed)